Easton, MD

7:08 PM EST on November 22, 2019 (GMT -0500)
Easton / Newnam

Weather History for KESN - September, 2019

Change the Weather History Date:

Sunday, September 29, 2019

  Actual Average Record
Temperature  
Mean Temperature 79 °F -  
Max Temperature 89 °F 76 °F 91 °F (1954)
Min Temperature 69 °F 55 °F 41 °F (1957)
Cooling Degree Days 14    
Growing Degree Days 29 (Base 50)    
Moisture  
Dew Point 68 °F    
Average Humidity 81    
Maximum Humidity 100    
Minimum Humidity 43    
Precipitation  
Precipitation 0.00 in - - ()
Sea Level Pressure  
Sea Level Pressure 30.20 in    
Wind  
Wind Speed 3 mph (NE)    
Max Wind Speed 15 mph    
Max Gust Speed 18 mph    
Visibility 7 miles    
Events Fog    
Averages and records for this station are not official NWS values.
T = Trace of Precipitation, MM = Missing Value Source: NWS Daily Summary

Daily Weather History Graph

Daily Weather History Graph

Search for Another Location

Airport or City:

Astronomy

Sep. 29, 2019 Rise Set
Actual Time 6:58 AM EDT 6:50 PM EDT
Civil Twilight 6:31 AM EDT 7:17 PM EDT
Nautical Twilight 6:00 AM EDT 7:47 PM EDT
Astronomical Twilight 5:29 AM EDT 8:19 PM EDT
Moon 7:45 AM EDT (9/29) 7:50 PM EDT (9/29)
Length of Visible Light 12h 45m
Length of Day
11h 52m
New Moon, 1% of the Moon is Illuminated
Sep 29
New Moon
Oct 5
First Quarter
Oct 13
Full
Oct 21
Last Quarter
Oct 27
New

Hourly Weather History & Observations

Time (EDT) Temp. Heat Index Dew Point Humidity Pressure Visibility Wind Dir Wind Speed Gust Speed Precip Events Conditions
12:39 AM 74.8 °F - 72.9 °F 94% 30.12 in 10.0 mi SSW 3.5 mph - N/A   Clear
12:59 AM 75.4 °F - 73.6 °F 94% 30.12 in 10.0 mi South 3.5 mph - N/A   Clear
1:19 AM 75.0 °F - 73.2 °F 94% 30.13 in 7.0 mi Calm Calm - N/A   Clear
1:39 AM 74.5 °F - 72.9 °F 95% 30.14 in 7.0 mi NNE 3.5 mph - N/A   Clear
1:59 AM 73.9 °F - 72.5 °F 95% 30.14 in 7.0 mi NNE 3.5 mph - N/A   Clear
2:19 AM 73.6 °F - 72.5 °F 96% 30.14 in 5.0 mi Calm Calm - N/A   Clear
2:39 AM 73.4 °F - 72.0 °F 95% 30.13 in 5.0 mi Calm Calm - N/A   Clear
2:59 AM 73.4 °F - 72.1 °F 96% 30.13 in 5.0 mi Calm Calm - N/A   Clear
3:19 AM 72.9 °F - 71.8 °F 96% 30.13 in 4.0 mi Calm Calm - N/A   Clear
3:39 AM 72.9 °F - 71.8 °F 96% 30.13 in 3.0 mi Calm Calm - N/A   Mist
3:59 AM 71.2 °F - 70.2 °F 96% 30.13 in 0.5 mi Calm Calm - N/A Fog Fog
4:19 AM 71.4 °F - 70.3 °F 96% 30.13 in 0.5 mi Calm Calm - N/A Fog Fog
4:39 AM 70.2 °F - 69.1 °F 96% 30.14 in 0.5 mi Calm Calm - N/A Fog Fog
4:59 AM 70.5 °F - 69.3 °F 96% 30.15 in 0.2 mi Calm Calm - N/A Fog Fog
5:19 AM 70.2 °F - 69.1 °F 96% 30.15 in 0.5 mi Calm Calm - N/A Fog Fog
5:39 AM 69.4 °F - 68.4 °F 96% 30.16 in 3.0 mi Calm Calm - N/A   Overcast
5:56 AM 69.8 °F - 68.0 °F 94% 30.16 in 3.0 mi Calm Calm - N/A   Overcast
6:50 AM 71.6 °F - 71.6 °F 100% 30.18 in 3.0 mi Calm Calm - N/A   Overcast
7:50 AM 73.4 °F - 71.6 °F 94% 30.21 in 10.0 mi North 4.6 mph - N/A   Clear
8:50 AM 75.2 °F - 71.6 °F 89% 30.22 in 10.0 mi NNE 8.1 mph - N/A   Clear
9:50 AM 78.8 °F - 68.0 °F 69% 30.24 in 10.0 mi NNE 15.0 mph - N/A   Clear
10:50 AM 82.4 °F 84.6 °F 66.2 °F 58% 30.25 in 10.0 mi NNE 15.0 mph 18.4 mph N/A   Clear
11:50 AM 86.0 °F 87.3 °F 64.4 °F 48% 30.25 in 10.0 mi NNE 11.5 mph - N/A   Clear
12:50 PM 87.8 °F 89.4 °F 64.4 °F 46% 30.25 in 10.0 mi North 11.5 mph 16.1 mph N/A   Clear
1:50 PM 87.8 °F 89.4 °F 64.4 °F 46% 30.24 in 10.0 mi ENE 3.5 mph - N/A   Scattered Clouds
2:50 PM 89.6 °F 91.1 °F 64.4 °F 43% 30.23 in 10.0 mi ENE 9.2 mph - N/A   Scattered Clouds
3:50 PM 84.2 °F 85.6 °F 64.4 °F 51% 30.22 in 10.0 mi ENE 5.8 mph - N/A   Mostly Cloudy
4:50 PM 86.0 °F 87.3 °F 64.4 °F 48% 30.22 in 10.0 mi ENE 3.5 mph - N/A   Mostly Cloudy
6:50 PM 78.8 °F - 66.2 °F 65% 30.24 in 10.0 mi East 3.5 mph - N/A   Scattered Clouds
7:50 PM 75.2 °F - 64.4 °F 69% 30.26 in 10.0 mi East 8.1 mph - N/A   Scattered Clouds
8:50 PM 73.4 °F - 62.6 °F 69% 30.27 in 10.0 mi East 4.6 mph - N/A   Clear
9:50 PM 71.6 °F - 64.4 °F 78% 30.28 in 10.0 mi Calm Calm - N/A   Clear
10:20 PM 71.1 °F - 63.5 °F 77% 30.29 in 10.0 mi Calm Calm - N/A   Clear
10:40 PM 70.7 °F - 63.5 °F 78% 30.30 in 7.0 mi Calm Calm - N/A   Clear
11:00 PM 70.0 °F - 63.5 °F 80% 30.29 in 10.0 mi Calm Calm - N/A   Clear
11:20 PM 70.0 °F - 63.7 °F 80% 30.30 in 10.0 mi Calm Calm - N/A   Clear
11:40 PM 69.8 °F - 63.9 °F 81% 30.31 in 1.2 mi Calm Calm - N/A   Haze